Regional Weather Roundup
Issued by NWS Goodland, KS

Home | Current Version | Previous Version | Graphics & Text | Print | Product List | Glossary On
Versions: 1 2 3 4 5 6 7 8 9 10 11 12 13 14 15 16 17 18 19 20 21 22 23 24 25 26 27 28 29 30 31 32 33 34 35 36 37 38 39 40 41 42 43 44 45 46 47 48 49 50
972
ASUS43 KGLD 080659
RWRGLD

GOODLAND FORECAST AREA HOURLY WEATHER ROUNDUP
NATIONAL WEATHER SERVICE GOODLAND KS
1200 AM MST MON FEB 08 2016

...OFFICIAL OBSERVATIONS...

CITY           SKY/WX    TMP DP  RH WIND       PRES   REMARKS
GOODLAND KS    CLEAR     26  12  55 NW22      30.32S WCI  12
HILL CITY KS   CLEAR     28  17  63 NW12      30.27F WCI  18
IMPERIAL NEB   CLEAR     27  13  55 NW22G32   30.29S WCI  13
MCCOOK NEB     CLEAR     25  15  66 NW15      30.27F WCI  13
AKRON CO       PTCLDY    23  11  60 NW24G31   30.36R WCI   7
BURLINGTON CO  CLOUDY    27  14  58 NW22      30.36S WCI  13
LIMON CO       CLOUDY    17  10  74 NW10      30.39R WCI   5
$$

...UNOFFICIAL OBSERVATIONS...

CITY           SKY/WX    TMP DP  RH WIND       PRES   REMARKS
COLBY KS       CLEAR     28  18  64 NW24G30   30.31S WCI  14
GOVE KS          N/A     30  32 100 MISG        N/A
LENORA KS        N/A     27  32 100 MISG        N/A
NORTON KS      CLEAR     28  16  59 W18       30.23  WCI  16
KIT CARSON CO    N/A     21  12  67 MISG        N/A
YUMA CO          N/A     26  13  57 N17G25      N/A  WCI  13
$$




USA.gov is the U.S. government's official web portal to all federal, state and local government web resources and services.